Lafayette, LA

6:00 PM CDT on July 27, 2017 (GMT -0500)
Lafayette Regional

Weather History for KLFT - March, 2012

Change the Weather History Date:

Wednesday, March 21, 2012

  Actual Average Record
Temperature  
Mean Temperature 66 °F 63 °F  
Max Temperature 75 °F 74 °F 88 °F (1907)
Min Temperature 57 °F 53 °F 31 °F (1965)
Degree Days  
Heating Degree Days 0 4  
Month to date heating degree days 36 117  
Since 1 July heating degree days 1029 1347  
Cooling Degree Days 1 2  
Month to date cooling degree days 116 36  
Year to date cooling degree days 184 68  
Growing Degree Days 16 (Base 50)    
Moisture  
Dew Point 60 °F    
Average Humidity 84    
Maximum Humidity 93    
Minimum Humidity 74    
Precipitation  
Precipitation 1.68 in 0.11 in 3.62 in (1949)
Month to date precipitation 5.81 2.62  
Year to date precipitation 17.37 12.74  
Snow  
Snow 0.00 in 0.00 in 0.00 in ()
Month to date snowfall 0.0 0.0  
Since 1 July snowfall 0.0 T  
Snow Depth 0.00 in    
Sea Level Pressure  
Sea Level Pressure 29.86 in    
Wind  
Wind Speed 8 mph (SSW)    
Max Wind Speed 28 mph    
Max Gust Speed 35 mph    
Visibility 8 miles    
Events Rain , Thunderstorm    
T = Trace of Precipitation, MM = Missing Value Source: NWS Daily Summary

Daily Weather History Graph

Daily Weather History Graph

Search for Another Location

Airport or City:

Trip Planner

Search our weather history database for the weather conditions in past years. The results will help you decide how hot, cold, wet, or windy it might be!

Date:

Astronomy

Mar. 21, 2012 Rise Set
Actual Time 7:09 AM CDT 7:20 PM CDT
Civil Twilight 6:46 AM CDT 7:44 PM CDT
Nautical Twilight 6:18 AM CDT 8:12 PM CDT
Astronomical Twilight 5:49 AM CDT 8:40 PM CDT
Moon 6:20 AM CDT (3/21) 6:46 PM CDT (3/21)
Length of Visible Light 12h 58m
Length of Day
12h 10m
Waning Crescent, 1% of the Moon is Illuminated
Mar 21
Waning Crescent
Mar 22
New
Mar 30
First Quarter
Apr 6
Full
Apr 13
Last Quarter

Hourly Weather History & Observations

Time (CDT) Temp. Dew Point Humidity Pressure Visibility Wind Dir Wind Speed Gust Speed Precip Events Conditions
12:53 AM 75.2 °F 66.2 °F 73% 29.82 in 10.0 mi SSE 11.5 mph 24.2 mph N/A   Mostly Cloudy
1:06 AM 75.2 °F 66.2 °F 73% 29.83 in 10.0 mi SSE 12.7 mph 19.6 mph N/A   Mostly Cloudy
1:25 AM 75.2 °F 66.2 °F 73% 29.85 in 10.0 mi SSE 9.2 mph 25.3 mph N/A   Mostly Cloudy
1:53 AM 75.0 °F 66.9 °F 76% 29.81 in 10.0 mi SE 9.2 mph 24.2 mph N/A   Mostly Cloudy
2:05 AM 75.2 °F 66.2 °F 73% 29.79 in 10.0 mi SE 10.4 mph 19.6 mph N/A   Mostly Cloudy
2:37 AM 75.2 °F 66.2 °F 73% 29.79 in 10.0 mi SE 10.4 mph 24.2 mph N/A   Scattered Clouds
2:53 AM 75.0 °F 66.9 °F 76% 29.77 in 10.0 mi SSE 12.7 mph 20.7 mph N/A   Scattered Clouds
3:00 AM 75.2 °F 66.2 °F 73% 29.77 in 10.0 mi SE 11.5 mph 23.0 mph N/A   Mostly Cloudy
3:15 AM 73.4 °F 66.2 °F 78% 29.76 in 10.0 mi SE 15.0 mph 26.5 mph N/A Thunderstorm Thunderstorm
3:46 AM 73.4 °F 66.2 °F 78% 29.74 in 10.0 mi SE 9.2 mph 25.3 mph N/A Thunderstorm Overcast
3:53 AM 73.9 °F 66.9 °F 79% 29.71 in 10.0 mi ESE 11.5 mph 21.9 mph N/A Thunderstorm Thunderstorm
4:13 AM 73.4 °F 66.2 °F 78% 29.71 in 10.0 mi SE 10.4 mph 21.9 mph 0.00 in   Overcast
4:53 AM 75.0 °F 66.9 °F 76% 29.71 in 10.0 mi SSE 13.8 mph 34.5 mph 0.00 in   Overcast
5:53 AM 73.0 °F 68.0 °F 84% 29.70 in 6.0 mi SSE 16.1 mph 31.1 mph 0.02 in Rain Light Rain
6:13 AM 71.6 °F 69.8 °F 94% 29.73 in 5.0 mi SSE 16.1 mph 28.8 mph 0.04 in Rain , Thunderstorm Rain
6:30 AM 71.6 °F 69.8 °F 94% 29.73 in 2.0 mi SSE 16.1 mph 28.8 mph 0.18 in Rain , Thunderstorm Heavy Thunderstorms and Rain
6:37 AM 71.6 °F 69.8 °F 94% 29.74 in 0.8 mi South 23.0 mph 31.1 mph 0.54 in Rain , Thunderstorm Heavy Thunderstorms and Rain
6:50 AM 69.8 °F 66.2 °F 88% 29.77 in 6.0 mi South 13.8 mph 27.6 mph 0.60 in Rain , Thunderstorm Rain
6:53 AM 69.1 °F 66.0 °F 90% 29.77 in 6.0 mi South 12.7 mph 25.3 mph 0.62 in Rain , Thunderstorm Rain
6:59 AM 68.0 °F 66.2 °F 94% 29.79 in 2.0 mi South 21.9 mph 29.9 mph 0.12 in Rain , Thunderstorm Rain
7:01 AM 68.0 °F 66.2 °F 94% 29.78 in 1.5 mi SSW 19.6 mph 29.9 mph 0.19 in Rain , Thunderstorm Rain
7:12 AM 68.0 °F 64.4 °F 88% 29.77 in 0.8 mi West 15.0 mph 32.2 mph 0.51 in Rain , Thunderstorm Rain
7:18 AM 66.2 °F 64.4 °F 94% 29.77 in 2.5 mi West 18.4 mph - 0.52 in Rain , Thunderstorm Rain
7:25 AM 66.2 °F 64.4 °F 94% 29.77 in 6.0 mi West 20.7 mph - 0.54 in Rain , Thunderstorm Rain
7:34 AM 64.4 °F 62.6 °F 94% 29.79 in 7.0 mi West 24.2 mph 29.9 mph 0.55 in Rain , Thunderstorm Rain
7:53 AM 62.1 °F 59.0 °F 90% 29.83 in 10.0 mi West 23.0 mph 31.1 mph 0.57 in Rain , Thunderstorm Rain
8:10 AM 60.8 °F 57.2 °F 88% 29.86 in 10.0 mi West 13.8 mph - 0.02 in Rain , Thunderstorm Rain
8:31 AM 60.8 °F 57.2 °F 88% 29.89 in 4.0 mi WSW 9.2 mph 18.4 mph 0.12 in Rain , Thunderstorm Rain
8:40 AM 60.8 °F 57.2 °F 88% 29.87 in 2.0 mi WNW 13.8 mph - 0.18 in Rain , Thunderstorm Rain
8:53 AM 60.1 °F 57.9 °F 93% 29.88 in 4.0 mi WNW 8.1 mph 20.7 mph 0.22 in Rain , Thunderstorm Rain
9:02 AM 60.8 °F 57.2 °F 88% 29.90 in 8.0 mi West 9.2 mph - 0.01 in Rain Rain
9:53 AM 60.1 °F 55.9 °F 86% 29.90 in 10.0 mi NW 13.8 mph 21.9 mph 0.04 in   Mostly Cloudy
10:21 AM 59.0 °F 55.4 °F 88% 29.94 in 1.8 mi NW 9.2 mph 20.7 mph 0.08 in Rain , Thunderstorm Thunderstorms and Rain
10:31 AM 59.0 °F 55.4 °F 88% 29.96 in 5.0 mi West 9.2 mph - 0.11 in Rain , Thunderstorm Thunderstorms and Rain
10:38 AM 59.0 °F 55.4 °F 88% 29.97 in 7.0 mi WNW 15.0 mph 21.9 mph 0.11 in Rain Rain
10:53 AM 59.0 °F 55.0 °F 87% 29.96 in 7.0 mi NW 13.8 mph - 0.12 in Rain Light Rain
11:00 AM 59.0 °F 55.4 °F 88% 29.96 in 10.0 mi NW 15.0 mph - 0.00 in Rain Light Rain
11:53 AM 57.0 °F 54.0 °F 89% 29.96 in 8.0 mi WNW 12.7 mph - 0.07 in Rain Light Rain
12:53 PM 59.0 °F 52.0 °F 78% 29.94 in 10.0 mi North 6.9 mph - 0.01 in   Overcast
1:53 PM 57.9 °F 54.0 °F 87% 29.94 in 10.0 mi Variable 3.5 mph - N/A   Overcast
2:53 PM 59.0 °F 54.0 °F 83% 29.90 in 10.0 mi ENE 5.8 mph - N/A   Overcast
3:50 PM 59.0 °F 53.6 °F 82% 29.92 in 10.0 mi Calm Calm - N/A   Overcast
3:53 PM 59.0 °F 54.0 °F 83% 29.92 in 10.0 mi Calm Calm - N/A   Overcast
4:53 PM 59.0 °F 54.0 °F 83% 29.94 in 10.0 mi Calm Calm - 0.00 in   Mostly Cloudy
5:53 PM 59.0 °F 55.0 °F 87% 29.94 in 10.0 mi ESE 3.5 mph - N/A   Overcast
6:44 PM 59.0 °F 55.4 °F 88% 29.95 in 10.0 mi South 3.5 mph - 0.00 in   Overcast
6:53 PM 59.0 °F 55.9 °F 90% 29.94 in 10.0 mi Variable 3.5 mph - 0.00 in   Overcast
7:23 PM 59.0 °F 55.4 °F 88% 29.94 in 10.0 mi Calm Calm - N/A   Overcast
7:31 PM 59.0 °F 55.4 °F 88% 29.94 in 10.0 mi Calm Calm - N/A   Overcast
7:53 PM 59.0 °F 55.9 °F 90% 29.94 in 10.0 mi Calm Calm - N/A   Overcast
8:53 PM 59.0 °F 57.0 °F 93% 29.96 in 10.0 mi Calm Calm - 0.01 in   Mostly Cloudy
9:53 PM 59.0 °F 57.0 °F 93% 30.00 in 10.0 mi South 4.6 mph - 0.00 in   Overcast
10:12 PM 59.0 °F 57.2 °F 94% 30.01 in 10.0 mi South 5.8 mph - N/A   Overcast
10:38 PM 59.0 °F 57.2 °F 94% 30.01 in 10.0 mi South 5.8 mph - N/A   Overcast
10:53 PM 59.0 °F 57.0 °F 93% 30.01 in 10.0 mi South 3.5 mph - N/A   Overcast
11:31 PM 59.0 °F 57.2 °F 94% 29.99 in 6.0 mi Calm Calm - 0.00 in Rain Light Rain
11:53 PM 59.0 °F 57.0 °F 93% 30.00 in 6.0 mi Calm Calm - 0.00 in   Overcast